Lincoln, IL

4:52 PM CDT on September 24, 2016 (GMT -0500)
Lincoln

Weather History for KAAA - January, 2014

Change the Weather History Date:

Monday, January 13, 2014

  Actual Average (KSPI) Record (KSPI)
Temperature  
Mean Temperature 40 °F 26 °F  
Max Temperature 51 °F 34 °F 60 °F (1950)
Min Temperature 29 °F 19 °F -11 °F (1912)
Degree Days  
Heating Degree Days 25 39  
Month to date heating degree days 496  
Since 1 July heating degree days 2636  
Cooling Degree Days 0 0  
Month to date cooling degree days 0  
Year to date cooling degree days 0  
Moisture  
Dew Point 34 °F    
Average Humidity 75    
Maximum Humidity 96    
Minimum Humidity 54    
Precipitation  
Precipitation 0.00 in 0.05 in 1.66 in (1995)
Month to date precipitation 0.82  
Year to date precipitation 0.82  
Snow  
Snow 0.00 in 0.20 in 5.10 in (1968)
Month to date snowfall 2.7  
Since 1 July snowfall 8.9  
Snow Depth -    
Sea Level Pressure  
Sea Level Pressure 29.71 in    
Wind  
Wind Speed 9 mph (WSW)    
Max Wind Speed 15 mph    
Max Gust Speed 20 mph    
Visibility 10 miles    
Events      
T = Trace of Precipitation, MM = Missing Value Source: NWS Daily Summary

Daily Weather History Graph

Daily Weather History Graph

Search for Another Location

Airport or City:

Trip Planner

Search our weather history database for the weather conditions in past years. The results will help you decide how hot, cold, wet, or windy it might be!

Date:

Astronomy

Jan. 13, 2014 Rise Set
Actual Time 7:18 AM CST 4:54 PM CST
Civil Twilight 6:48 AM CST 5:24 PM CST
Nautical Twilight 6:14 AM CST 5:57 PM CST
Astronomical Twilight 5:42 AM CST 6:30 PM CST
Moon 3:09 PM CST (1/13) 5:07 AM CST (1/13)
Length of Visible Light 10h 35m
Length of Day
9h 35m
Waxing Gibbous, 95% of the Moon is Illuminated
Jan 13
Waxing Gibbous
Jan 15
Full
Jan 23
Last Quarter
Jan 30
New
Feb 6
First Quarter

Hourly Weather History & Observations

Time (CST) Temp. Windchill Dew Point Humidity Pressure Visibility Wind Dir Wind Speed Gust Speed Precip Events Conditions
12:15 AM 42.6 °F 35.2 °F 34.3 °F 73% 29.64 in 10.0 mi South 15.0 mph - N/A   Clear
12:35 AM 42.4 °F 36.1 °F 34.3 °F 73% 29.63 in 10.0 mi South 11.5 mph - N/A   Clear
12:55 AM 42.8 °F 36.2 °F 34.7 °F 73% 29.63 in 10.0 mi South 12.7 mph - N/A   Clear
1:15 AM 43.7 °F 37.7 °F 34.7 °F 71% 29.63 in 10.0 mi South 11.5 mph - N/A   Clear
1:35 AM 45.1 °F 39.9 °F 35.2 °F 68% 29.64 in 10.0 mi South 10.4 mph 18.4 mph N/A   Clear
1:55 AM 45.0 °F 40.1 °F 35.6 °F 70% 29.64 in 10.0 mi South 9.2 mph 17.3 mph N/A   Clear
2:15 AM 45.0 °F 40.6 °F 35.6 °F 70% 29.63 in 10.0 mi South 8.1 mph - N/A   Clear
2:35 AM 45.0 °F 40.1 °F 35.6 °F 70% 29.63 in 10.0 mi SSW 9.2 mph 16.1 mph N/A   Clear
2:55 AM 44.6 °F 40.7 °F 35.8 °F 71% 29.62 in 10.0 mi SSW 6.9 mph - N/A   Clear
3:15 AM 45.5 °F 39.6 °F 35.8 °F 69% 29.62 in 10.0 mi South 12.7 mph 18.4 mph N/A   Clear
3:35 AM 45.1 °F 39.9 °F 35.8 °F 70% 29.61 in 10.0 mi South 10.4 mph 17.3 mph N/A   Clear
3:55 AM 44.8 °F 39.4 °F 35.6 °F 70% 29.61 in 10.0 mi South 10.4 mph 16.1 mph N/A   Clear
4:15 AM 43.7 °F 37.7 °F 35.6 °F 73% 29.60 in 10.0 mi South 11.5 mph - N/A   Clear
4:35 AM 42.3 °F 35.9 °F 35.6 °F 77% 29.59 in 10.0 mi South 11.5 mph - N/A   Clear
4:55 AM 41.7 °F 34.8 °F 35.6 °F 79% 29.59 in 10.0 mi South 12.7 mph - N/A   Clear
5:15 AM 41.5 °F 35.0 °F 35.6 °F 79% 29.59 in 10.0 mi South 11.5 mph - N/A   Clear
5:35 AM 41.5 °F 37.1 °F 35.6 °F 79% 29.59 in 10.0 mi South 6.9 mph - N/A   Clear
5:55 AM 41.9 °F 39.0 °F 35.8 °F 79% 29.59 in 10.0 mi SSW 4.6 mph - N/A   Scattered Clouds
6:15 AM 42.4 °F 38.8 °F 36.0 °F 78% 29.59 in 10.0 mi SSW 5.8 mph - N/A   Mostly Cloudy
6:35 AM 43.2 °F 39.7 °F 36.0 °F 76% 29.59 in 10.0 mi SSW 5.8 mph - N/A   Scattered Clouds
6:55 AM 42.4 °F 38.8 °F 35.8 °F 77% 29.60 in 10.0 mi SW 5.8 mph - N/A   Clear
7:15 AM 41.5 °F 39.6 °F 35.6 °F 79% 29.61 in 10.0 mi SSW 3.5 mph - N/A   Clear
7:35 AM 41.5 °F 37.8 °F 35.6 °F 79% 29.62 in 10.0 mi SSW 5.8 mph - N/A   Clear
7:55 AM 41.5 °F 37.8 °F 35.6 °F 79% 29.63 in 10.0 mi SSW 5.8 mph - N/A   Clear
8:15 AM 41.7 °F 38.8 °F 35.6 °F 79% 29.64 in 10.0 mi SSW 4.6 mph - N/A   Clear
8:35 AM 42.6 °F 39.9 °F 36.0 °F 77% 29.64 in 10.0 mi SW 4.6 mph - N/A   Clear
8:55 AM 43.3 °F 40.7 °F 35.8 °F 75% 29.66 in 10.0 mi WSW 4.6 mph - N/A   Clear
9:15 AM 43.7 °F 42.1 °F 35.1 °F 72% 29.66 in 10.0 mi WSW 3.5 mph - N/A   Clear
9:35 AM 45.1 °F 43.7 °F 34.7 °F 67% 29.66 in 10.0 mi West 3.5 mph - N/A   Clear
9:55 AM 43.9 °F 39.9 °F 34.2 °F 69% 29.67 in 10.0 mi West 6.9 mph - N/A   Clear
10:15 AM 44.4 °F 40.5 °F 34.3 °F 68% 29.69 in 10.0 mi WNW 6.9 mph - N/A   Clear
10:35 AM 45.0 °F 42.6 °F 34.7 °F 67% 29.68 in 10.0 mi West 4.6 mph - N/A   Clear
10:55 AM 46.0 °F 43.9 °F 33.8 °F 62% 29.68 in 10.0 mi West 4.6 mph - N/A   Clear
11:15 AM 47.3 °F - 34.2 °F 60% 29.68 in 10.0 mi WSW 3.5 mph - N/A   Clear
11:35 AM 49.1 °F - 35.4 °F 59% 29.68 in 10.0 mi West 9.2 mph - N/A   Clear
11:55 AM 49.3 °F - 35.2 °F 58% 29.67 in 10.0 mi WSW 6.9 mph - N/A   Clear
12:15 PM 50.0 °F - 36.3 °F 59% 29.67 in 10.0 mi West 6.9 mph - N/A   Clear
12:35 PM 50.5 °F - 36.1 °F 58% 29.67 in 10.0 mi West 11.5 mph 17.3 mph N/A   Clear
12:55 PM 50.4 °F - 35.6 °F 57% 29.66 in 10.0 mi West 10.4 mph 18.4 mph N/A   Scattered Clouds
1:15 PM 51.3 °F - 35.8 °F 55% 29.66 in 10.0 mi West 11.5 mph - N/A   Scattered Clouds
1:35 PM 51.8 °F - 36.3 °F 56% 29.66 in 10.0 mi West 8.1 mph - N/A   Clear
1:55 PM 51.1 °F - 34.7 °F 54% 29.66 in 10.0 mi West 8.1 mph 16.1 mph N/A   Clear
2:15 PM 50.5 °F - 35.2 °F 56% 29.67 in 10.0 mi West 11.5 mph 18.4 mph N/A   Clear
2:35 PM 50.0 °F - 36.3 °F 59% 29.68 in 10.0 mi WNW 10.4 mph 18.4 mph N/A   Clear
2:55 PM 49.1 °F - 35.4 °F 59% 29.69 in 10.0 mi West 9.2 mph 19.6 mph N/A   Clear
3:15 PM 48.4 °F - 35.2 °F 60% 29.71 in 10.0 mi WNW 10.4 mph 17.3 mph N/A   Clear
3:35 PM 47.3 °F - 35.4 °F 63% 29.72 in 10.0 mi WNW 8.1 mph 17.3 mph N/A   Clear
3:55 PM 44.6 °F 38.8 °F 35.2 °F 70% 29.74 in 10.0 mi WNW 11.5 mph 19.6 mph N/A   Scattered Clouds
4:15 PM 42.6 °F 37.8 °F 35.2 °F 75% 29.75 in 10.0 mi WNW 8.1 mph - N/A   Scattered Clouds
4:35 PM 41.0 °F 36.4 °F 34.9 °F 79% 29.76 in 10.0 mi WNW 6.9 mph - N/A   Clear
4:55 PM 39.6 °F 34.7 °F 33.8 °F 80% 29.77 in 10.0 mi WNW 6.9 mph - N/A   Clear
5:15 PM 37.9 °F 30.9 °F 32.4 °F 80% 29.79 in 10.0 mi WNW 10.4 mph 18.4 mph N/A   Clear
5:35 PM 36.3 °F 30.1 °F 32.0 °F 84% 29.80 in 10.0 mi WNW 8.1 mph 18.4 mph N/A   Clear
5:55 PM 35.4 °F 31.5 °F 31.6 °F 86% 29.81 in 10.0 mi West 4.6 mph - N/A   Clear
6:15 PM 34.9 °F 29.9 °F 31.6 °F 88% 29.82 in 10.0 mi West 5.8 mph - N/A   Clear
6:35 PM 34.7 °F 30.6 °F 31.1 °F 87% 29.82 in 10.0 mi West 4.6 mph - N/A   Clear
6:55 PM 34.0 °F 28.8 °F 31.1 °F 89% 29.83 in 10.0 mi West 5.8 mph - N/A   Clear
7:15 PM 34.0 °F 29.8 °F 31.1 °F 89% 29.84 in 10.0 mi West 4.6 mph - N/A   Clear
7:35 PM 33.8 °F 29.6 °F 30.7 °F 89% 29.85 in 10.0 mi West 4.6 mph - N/A   Clear
7:55 PM 33.4 °F 28.1 °F 30.6 °F 89% 29.85 in 10.0 mi West 5.8 mph - N/A   Clear
8:15 PM 33.3 °F 27.9 °F 30.6 °F 90% 29.85 in 10.0 mi West 5.8 mph - N/A   Clear
8:35 PM 33.3 °F 27.9 °F 30.4 °F 89% 29.85 in 10.0 mi West 5.8 mph - N/A   Clear
8:55 PM 32.9 °F 27.5 °F 30.2 °F 90% 29.85 in 10.0 mi West 5.8 mph - N/A   Clear
9:15 PM 32.5 °F 28.1 °F 30.0 °F 90% 29.85 in 10.0 mi West 4.6 mph - N/A   Clear
9:35 PM 32.2 °F 28.9 °F 30.2 °F 92% 29.85 in 10.0 mi WSW 3.5 mph - N/A   Clear
9:55 PM 32.2 °F 28.9 °F 30.2 °F 92% 29.85 in 10.0 mi WSW 3.5 mph - N/A   Clear
10:15 PM 32.0 °F - 30.0 °F 92% 29.85 in 10.0 mi Calm Calm - N/A   Clear
10:35 PM 31.1 °F - 29.3 °F 93% 29.85 in 7.0 mi Calm Calm - N/A   Clear
10:55 PM 30.4 °F - 28.8 °F 94% 29.85 in 7.0 mi Calm Calm - N/A   Clear
11:15 PM 29.5 °F - 28.4 °F 96% 29.85 in 7.0 mi Calm Calm - N/A   Clear
11:35 PM 29.3 °F - 28.4 °F 96% 29.85 in 7.0 mi Calm Calm - N/A   Clear
11:55 PM 29.8 °F 26.3 °F 28.8 °F 96% 29.85 in 7.0 mi SSW 3.5 mph - N/A   Clear